DELTA 1 DEB, 21365

Orbit data source: Space-Track

DELTA 1 DEB, 21365 is space debris in SSO originally from a launch on Thu, 12 Jun 1975 UTC launched from the Air Force Western Test Range (AFWTR). Debris objects in space refer to the collection of defunct objects orbiting the Earth. Examples of debris include non-operational satellites, rocket bodies, and fragments generated from explosions, collisions, or faulty payload assembly.

Loading next visibility...
Identifier
21365, 1975-052CK
Orbit
SSO
Country
Flag of USUS
Related business
Manufacturer
Unknown
Mission
Spacecraft
Bus & Motor
Unknown
Mass
Unknown
Launch date (UTC)
1975-06-12 (51 years ago)
Launch vehicle
Unknown
Launch site
Air Force Western Test Range (AFWTR)
Object type
Payload
Rocket body
Debris
Shape & HBR
Unknown shape, 0.1 m
Radar Cross Section
Medium (>0.1 m² and <1 m²)

Expand to show TLE details & history
Last TLE update: 2 days ago

TLE from 2 days ago
0 DELTA 1 DEB
1 21365U 75052CK  26171.44689271 -.00000410  00000-0 -11164-2 0  9996
2 21365  99.7303 237.0546 0231530 170.0424 215.6460 12.98521949661770
Epoch: 2026-06-20T10:43Z
TLE epoch observation values (Epoch: 2026-06-20T10:43:31.530Z)
Latitude
23.82999°
Longitude
163.18961°
Altitude
1,415.836 km
Speed
7.086 km/s
True Right ascension
15h 30m 55s
True Declination
23° 42' 50"
Sunlit
Object was in daylight at epoch
Visualization orbit readout
Latitude
Unknown
Longitude
Unknown
Altitude
Unknown
Speed
Unknown
Apparent Right ascension
Unknown
Apparent Declination
Unknown
Sunlit
N/A
Visualization observer readout
Local Sidereal Time
14:36:18
Azimuth
Unknown
Elevation
Unknown
Doppler factor
Unknown
Orbital elements
Apogee altitude
1,442.224 km
Perigee altitude
1,088.289 km
Semi-major axis
7,643.394 km
Eccentricity
0.02315
Inclination
99.7303°
RAAN
237.0546°
Arg. of periapsis
170.0424°
True anomaly
214.13555°
Mean anomaly
215.646°
Eccentric anomaly
214.88725°
Mean motion
3.24798 °/min
Orbital period
110.84 mins
BSTAR
-0.0011164
Loading maneuver chart data...
Computing Atmospheric mass density...
Loading historical data...
Loading historical data...
Loading historical data...
Loading historical data...
Loading historical data...
Loading historical data...
Loading historical data...

Documentation

Showing up to 5 results
|